TimeCST,TemperatureF,Dew PointF,Humidity,Sea Level PressureIn,VisibilityMPH,Wind Direction,Wind SpeedMPH,Gust SpeedMPH,PrecipitationIn,Events,Conditions,WindDirDegrees,DateUTC
12:56 AM,53.1,39.0,59,29.75,10.0,SSE,10.4,-,N/A,,Clear,160,2012-11-22 06:56:00
1:56 AM,54.0,39.9,59,29.74,10.0,South,9.2,-,N/A,,Clear,180,2012-11-22 07:56:00
2:56 AM,55.0,39.9,57,29.71,10.0,South,15.0,23.0,N/A,,Clear,190,2012-11-22 08:56:00
3:56 AM,55.0,39.9,57,29.69,10.0,SSW,11.5,-,N/A,,Clear,200,2012-11-22 09:56:00
4:56 AM,53.1,39.9,61,29.69,10.0,SSW,13.8,-,N/A,,Clear,200,2012-11-22 10:56:00
6:56 AM,53.1,39.0,59,29.66,10.0,SSW,13.8,-,N/A,,Clear,200,2012-11-22 12:56:00
7:56 AM,52.0,39.9,63,29.66,10.0,SSW,12.7,20.7,N/A,,Clear,200,2012-11-22 13:56:00
8:56 AM,55.0,39.9,57,29.65,10.0,SSW,17.3,23.0,N/A,,Clear,200,2012-11-22 14:56:00
9:56 AM,57.9,41.0,53,29.65,10.0,SSW,13.8,-,N/A,,Clear,210,2012-11-22 15:56:00
10:56 AM,60.1,41.0,49,29.63,10.0,SSW,13.8,21.9,N/A,,Clear,200,2012-11-22 16:56:00
11:56 AM,60.1,41.0,49,29.61,10.0,SSW,13.8,19.6,N/A,,Clear,200,2012-11-22 17:56:00
12:56 PM,60.1,41.0,49,29.60,10.0,SSW,13.8,-,N/A,,Clear,200,2012-11-22 18:56:00
1:56 PM,61.0,41.0,48,29.60,10.0,WSW,11.5,20.7,N/A,,Clear,250,2012-11-22 19:56:00
2:56 PM,60.1,41.0,49,29.60,10.0,SW,11.5,-,N/A,,Clear,230,2012-11-22 20:56:00
3:56 PM,55.0,39.0,55,29.65,10.0,West,20.7,27.6,N/A,,Clear,270,2012-11-22 21:56:00
4:56 PM,45.0,34.0,65,29.70,10.0,West,18.4,28.8,N/A,,Clear,270,2012-11-22 22:56:00
5:49 PM,41.0,32.0,70,29.73,10.0,West,21.9,31.1,N/A,,Overcast,280,2012-11-22 23:49:00
5:56 PM,41.0,30.9,67,29.75,10.0,West,23.0,32.2,N/A,,Overcast,280,2012-11-22 23:56:00
6:56 PM,37.0,30.0,76,29.80,10.0,West,19.6,28.8,0.00,,Overcast,270,2012-11-23 00:56:00
7:23 PM,33.8,30.2,87,29.80,2.0,West,18.4,28.8,0.00,Snow,Light Snow,270,2012-11-23 01:23:00
7:37 PM,32.0,28.4,87,29.80,3.0,West,18.4,25.3,0.00,Snow,Light Snow,280,2012-11-23 01:37:00
7:49 PM,33.8,28.4,81,29.80,9.0,West,17.3,25.3,0.00,,Overcast,280,2012-11-23 01:49:00
7:56 PM,33.1,28.0,82,29.82,10.0,West,15.0,25.3,0.00,Snow,Light Snow,280,2012-11-23 01:56:00
8:56 PM,32.0,25.0,75,29.84,10.0,WNW,16.1,26.5,0.00,,Overcast,300,2012-11-23 02:56:00
9:56 PM,30.9,23.0,72,29.86,10.0,West,21.9,31.1,0.00,,Overcast,280,2012-11-23 03:56:00
10:07 PM,30.2,24.8,80,29.85,10.0,WNW,17.3,31.1,N/A,,Overcast,300,2012-11-23 04:07:00
10:56 PM,28.9,19.9,69,29.87,10.0,NW,19.6,35.7,N/A,,Overcast,310,2012-11-23 04:56:00
11:56 PM,26.1,15.1,63,29.89,10.0,WNW,18.4,31.1,N/A,,Overcast,300,2012-11-23 05:56:00